Location: Blackfoot
(53.5367°N, 112.7800°W)
Time: 06:05:07
(UTC-06:00)

Amateur Radio Satellites - All Passes

Search period start: 23 August 2017 05:35
Search period end: 24 August 2017 05:35
Location: Blackfoot, 53.5367°N, 112.7800°W

Satellite Date Start Highest point End Downlink Frequencies (MHz)
Time Altitude Azimuth
AO-85 23 Aug 05:35:41 05:38:39 21° 118° (ESE) 05:41:38 145.980
BEESAT 3 23 Aug 05:52:13 05:56:03 44° 126° (SE) 05:59:56 437.485
KKS-1 23 Aug 06:07:22 06:11:34 39° 262° (W) 06:15:46 437.445
NO-84 23 Aug 06:11:56 06:14:49 84° 18° (NNE) 06:17:48 435.350 FM
BEESAT 2 23 Aug 06:12:23 06:15:49 27° 120° (ESE) 06:19:17 435.950
YUBILEINY 23 Aug 06:17:31 06:22:37 17° 291° (WNW) 06:27:43 435.215
AO-7 23 Aug 06:26:54 06:35:07 65° 300° (WNW) 06:43:17 .
XW-2C 23 Aug 06:27:47 06:29:11 12° 86° (E) 06:30:35 145.795 - 145.815
XW-2F 23 Aug 06:37:15 06:39:16 14° 88° (E) 06:41:17 145.980 - 146.000
STARS 23 Aug 06:38:33 06:42:44 42° 261° (W) 06:46:56 437.465
STRAND 1 23 Aug 06:38:49 06:43:04 28° 58° (ENE) 06:47:20 437.568
PCSat 23 Aug 06:39:11 06:44:30 50° 40° (NE) 06:49:47 145.827
CUBESAT XI-V 23 Aug 06:44:38 06:46:36 12° 276° (W) 06:48:35 437.345
SO-50 23 Aug 06:50:00 06:54:32 62° 40° (NE) 06:59:05 436.795
ITAMSAT 1 23 Aug 06:56:58 07:01:09 25° 304° (NW) 07:05:20 435.822/435.867
KAITUO 1B 23 Aug 06:57:28 07:00:07 18° 90° (E) 07:02:44 145.475/437.950
FO-29 23 Aug 06:59:16 07:01:32 12° 39° (NE) 07:03:44 435.910
DOVE 4 23 Aug 07:05:14 07:09:53 71° 102° (ESE) 07:14:12 437.250
AO-85 23 Aug 07:14:45 07:18:39 65° 319° (NW) 07:22:38 145.980
HO-68 23 Aug 07:15:41 07:19:59 16° 83° (E) 07:24:15 435.675
NUDT-PHONESAT 23 Aug 07:25:42 07:29:05 31° 96° (E) 07:32:28 437.300
LilacSat-2 23 Aug 07:28:52 07:32:39 47° 99° (E) 07:36:24 437.200
XW-2D 23 Aug 07:29:44 07:33:29 47° 99° (E) 07:37:12 145.860 - 145.880
BEESAT 3 23 Aug 07:29:54 07:33:42 38° 326° (NNW) 07:37:32 437.485
XW-2B 23 Aug 07:40:51 07:44:40 59° 101° (E) 07:48:28 145.730 - 145.750
CUTE-I 23 Aug 07:44:19 07:49:31 51° 100° (E) 07:54:41 437.470
BEESAT 2 23 Aug 07:49:23 07:53:21 55° 320° (NW) 07:57:24 435.950
NO-84 23 Aug 07:49:25 07:51:59 27° 214° (SSW) 07:54:39 435.350 FM
CUTE 1.7 + AOD 2 23 Aug 07:57:14 08:00:36 22° 91° (E) 08:03:56 437.475
XW-2C 23 Aug 08:00:05 08:03:57 87° 280° (W) 08:07:49 145.795 - 145.815
XW-2F 23 Aug 08:10:02 08:13:52 73° 287° (WNW) 08:17:42 145.980 - 146.000
STRAND 1 23 Aug 08:16:55 08:21:57 60° 258° (WSW) 08:27:02 437.568
AO-7 23 Aug 08:20:16 08:26:31 25° 324° (NW) 08:32:46 .
PCSat 23 Aug 08:22:47 08:27:53 42° 242° (WSW) 08:32:57 145.827
UWE-3 23 Aug 08:23:31 08:25:50 14° 87° (E) 08:28:09 435.000/436.395/437.385
KAITUO 1B 23 Aug 08:30:42 08:34:26 54° 289° (WNW) 08:38:09 145.475/437.950
SO-50 23 Aug 08:30:50 08:34:45 29° 240° (WSW) 08:38:41 436.795
CUBEBUG 2 23 Aug 08:35:34 08:39:11 27° 94° (E) 08:42:51 437.445
FO-29 23 Aug 08:38:35 08:45:06 39° 60° (ENE) 08:50:59 435.910
SEEDS 23 Aug 08:39:31 08:43:28 34° 96° (E) 08:47:21 437.485
DOVE 4 23 Aug 08:43:43 08:47:04 20° 304° (NW) 08:50:18 437.250
O/OREOS (USA 219) 23 Aug 08:56:10 08:57:46 12° 97° (E) 08:59:22 437.305
AO-85 23 Aug 08:56:39 08:59:45 21° 342° (NNW) 09:02:56 145.980
ZACube-1 23 Aug 08:56:44 08:59:38 17° 89° (E) 09:02:33 437.345
NUDT-PHONESAT 23 Aug 08:59:38 09:02:56 29° 295° (WNW) 09:06:14 437.300
HO-68 23 Aug 09:01:56 09:09:06 68° 105° (ESE) 09:16:14 435.675
LilacSat-2 23 Aug 09:03:39 09:06:41 22° 298° (WNW) 09:09:43 437.200
XW-2D 23 Aug 09:04:26 09:07:26 22° 298° (WNW) 09:10:26 145.860 - 145.880
BEESAT 3 23 Aug 09:09:25 09:12:16 18° 349° (N) 09:15:07 437.485
XW-2B 23 Aug 09:15:47 09:18:30 19° 300° (WNW) 09:21:12 145.730 - 145.750
AO-73 23 Aug 09:15:54 09:19:21 23° 92° (E) 09:22:51 145.935
AAUSAT CUBESAT 2 23 Aug 09:16:48 09:20:47 39° 97° (E) 09:24:42 437.432
UNISAT 6 23 Aug 09:17:20 09:20:49 24° 61° (ENE) 09:24:17 437.425
XW-2A 23 Aug 09:18:39 09:22:04 70° 103° (ESE) 09:25:28 145.665 - 145.685
CUTE-I 23 Aug 09:24:41 09:29:25 33° 300° (WNW) 09:34:06 437.470
BEESAT 2 23 Aug 09:28:47 09:31:54 21° 343° (NNW) 09:35:02 435.950
CUTE 1.7 + AOD 2 23 Aug 09:32:31 09:36:44 54° 290° (WNW) 09:40:56 437.475
XW-2C 23 Aug 09:35:44 09:37:33 13° 304° (NW) 09:39:21 145.795 - 145.815
XW-2F 23 Aug 09:46:07 09:47:19 11° 306° (NW) 09:48:30 145.980 - 146.000
TIGRISAT 23 Aug 09:50:55 09:54:58 42° 67° (ENE) 09:58:59 435.000
Oscar 11 23 Aug 09:57:26 10:01:35 41° 97° (E) 10:05:43 .
UWE-3 23 Aug 09:58:36 10:02:51 83° 287° (WNW) 10:07:12 435.000/436.395/437.385
DELFI C3 23 Aug 09:58:56 10:00:40 12° 86° (E) 10:02:22 145.870
STRAND 1 23 Aug 10:01:23 10:02:14 10° 278° (W) 10:03:06 437.568
PRISM 23 Aug 10:07:36 10:11:37 48° 68° (ENE) 10:15:39 437.425
RS-15 23 Aug 10:10:42 10:19:23 23° 98° (E) 10:28:02 29.354- 29.394
CUBEBUG 2 23 Aug 10:12:01 10:15:57 41° 293° (WNW) 10:19:58 437.445
AO-7 23 Aug 10:13:00 10:16:28 13° 350° (N) 10:19:55 .
Tancredo 1 23 Aug 10:13:37 10:16:04 24° 154° (SSE) 10:18:31 437.200
SEEDS 23 Aug 10:15:17 10:19:08 33° 295° (WNW) 10:22:57 437.485
FO-29 23 Aug 10:22:45 10:30:00 59° 259° (W) 10:36:29 435.910
O/OREOS (USA 219) 23 Aug 10:31:53 10:36:21 75° 117° (ESE) 10:40:51 437.305
ZACube-1 23 Aug 10:32:06 10:36:22 69° 288° (WNW) 10:40:42 437.345
ISS 23 Aug 10:34:12 10:36:25 17° 146° (SE) 10:38:39 437.550
AO-85 23 Aug 10:38:42 10:41:28 18° 7° (N) 10:44:19 145.980
nSIGHT-1 23 Aug 10:38:43 10:41:04 18° 147° (SSE) 10:43:26 .
Max Valier Satellite 23 Aug 10:44:04 10:47:11 25° 94° (E) 10:50:17 145.860
M-CUBED/EXP-1 PRIME 23 Aug 10:45:24 10:49:38 36° 57° (ENE) 10:53:53 437.505
BEESAT 3 23 Aug 10:48:16 10:51:11 19° 13° (NNE) 10:54:05 437.485
AIST 2D 23 Aug 10:49:23 10:52:08 22° 63° (ENE) 10:54:55 435.315
HO-68 23 Aug 10:50:06 10:56:29 36° 306° (NW) 11:02:50 435.675
NANOSAT C BR1 23 Aug 10:50:14 10:52:31 14° 54° (NE) 10:54:48 145.865
AO-73 23 Aug 10:51:42 10:55:50 50° 291° (WNW) 11:00:04 145.935
AAUSAT CUBESAT 2 23 Aug 10:52:29 10:56:08 29° 296° (WNW) 10:59:45 437.432
XW-2A 23 Aug 10:52:38 10:54:22 13° 302° (WNW) 10:56:05 145.665 - 145.685
UNISAT 6 23 Aug 10:53:08 10:57:19 50° 260° (W) 11:01:29 437.425
POLYITAN 1 23 Aug 10:56:58 10:59:46 18° 57° (ENE) 11:02:34 437.675
BEESAT 2 23 Aug 11:08:12 11:10:58 17° 7° (N) 11:13:46 435.950
CUTE 1.7 + AOD 2 23 Aug 11:11:09 11:11:39 10° 310° (NW) 11:12:10 437.475
EO-79 23 Aug 11:11:22 11:14:38 23° 60° (ENE) 11:17:56 145.935-145.965
QB50P2 23 Aug 11:11:33 11:14:56 24° 61° (ENE) 11:18:20 145.880/145.840
TIGRISAT 23 Aug 11:28:10 11:31:49 27° 266° (W) 11:35:28 435.000
BUGSAT 1 23 Aug 11:30:02 11:30:32 10° 51° (NE) 11:31:01 437.445
EO-88 23 Aug 11:31:38 11:35:18 61° 102° (ESE) 11:38:56 145.990 - 145.960
DELFI C3 23 Aug 11:32:01 11:36:02 86° 287° (WNW) 11:40:00 145.870
Oscar 11 23 Aug 11:33:49 11:37:37 30° 297° (WNW) 11:41:24 .
UWE-3 23 Aug 11:36:27 11:38:43 14° 305° (NW) 11:41:00 435.000/436.395/437.385
DUCHIFAT 1 23 Aug 11:37:27 11:41:06 30° 63° (ENE) 11:44:46 145.980
PRISM 23 Aug 11:43:46 11:47:07 23° 267° (W) 11:50:30 437.425
Tancredo 1 23 Aug 11:48:03 11:50:54 56° 173° (S) 11:53:46 437.200
Gurwin Techsat 1B 23 Aug 11:57:46 11:59:30 12° 43° (NE) 12:01:15 435.225
Oscar 19 23 Aug 11:59:53 12:02:46 15° 48° (NE) 12:05:40 437.125/150
AO-7 23 Aug 12:01:43 12:05:56 15° 18° (NNE) 12:10:09 .
ISS 23 Aug 12:09:13 12:12:23 47° 165° (SSE) 12:15:34 437.550
ZACube-1 23 Aug 12:10:10 12:11:56 12° 307° (NW) 12:13:42 437.345
O/OREOS (USA 219) 23 Aug 12:12:41 12:16:16 23° 319° (NW) 12:19:54 437.305
FO-29 23 Aug 12:12:50 12:16:16 14° 279° (W) 12:19:33 435.910
nSIGHT-1 23 Aug 12:13:47 12:16:58 49° 166° (SSE) 12:20:09 .
RS-15 23 Aug 12:17:28 12:29:36 69° 123° (ESE) 12:41:43 29.354- 29.394
Max Valier Satellite 23 Aug 12:17:41 12:21:06 36° 293° (WNW) 12:24:32 145.860
AO-85 23 Aug 12:19:13 12:22:57 33° 30° (NNE) 12:26:55 145.980
M-CUBED/EXP-1 PRIME 23 Aug 12:19:33 12:23:56 42° 256° (WSW) 12:28:24 437.505
AIST 2D 23 Aug 12:21:53 12:25:10 37° 263° (W) 12:28:29 435.315
NANOSAT C BR1 23 Aug 12:23:25 12:27:36 86° 76° (ENE) 12:31:49 145.865
BEESAT 3 23 Aug 12:25:48 12:29:41 43° 36° (NE) 12:33:30 437.485
POLYITAN 1 23 Aug 12:30:54 12:35:05 75° 257° (WSW) 12:39:18 437.675
HO-68 23 Aug 12:39:15 12:42:18 13° 330° (NNW) 12:45:20 435.675
SPROUT 23 Aug 12:41:45 12:43:28 12° 85° (E) 12:45:11 437.525
EO-79 23 Aug 12:46:00 12:50:07 54° 259° (W) 12:54:16 145.935-145.965
BEESAT 2 23 Aug 12:46:07 12:49:50 32° 30° (NNE) 12:53:31 435.950
QB50P2 23 Aug 12:46:24 12:50:30 49° 260° (W) 12:54:37 145.880/145.840
LO-87 23 Aug 12:52:16 12:55:49 74° 103° (ESE) 12:59:21 145.935 - 145.965
VELOX 1 23 Aug 12:55:23 12:57:38 14° 86° (E) 12:59:53 145.980
ESTCUBE 1 23 Aug 12:59:50 13:04:20 55° 101° (E) 13:08:48 437.505/2401.250
BUGSAT 1 23 Aug 13:01:06 13:05:05 59° 71° (ENE) 13:09:04 437.445
EO-88 23 Aug 13:06:10 13:08:35 17° 301° (WNW) 13:10:59 145.990 - 145.960
DELFI C3 23 Aug 13:08:12 13:10:11 13° 305° (NW) 13:12:09 145.870
DUCHIFAT 1 23 Aug 13:12:50 13:16:42 37° 262° (W) 13:20:37 145.980
Tancredo 1 23 Aug 13:23:05 13:25:54 47° 193° (SSW) 13:28:43 437.200
Gurwin Techsat 1B 23 Aug 13:33:12 13:38:16 45° 64° (ENE) 13:43:19 435.225
Oscar 19 23 Aug 13:36:06 13:41:11 65° 69° (ENE) 13:46:22 437.125/150
ISS 23 Aug 13:45:26 13:48:42 61° 184° (S) 13:51:56 437.550
AO-7 23 Aug 13:49:11 13:56:16 32° 44° (NE) 14:03:19 .
nSIGHT-1 23 Aug 13:49:56 13:53:11 60° 186° (S) 13:56:23 .
UKube-1 23 Aug 13:56:49 13:58:12 11° 85° (E) 13:59:33 .
AO-85 23 Aug 13:59:28 14:03:37 61° 230° (SW) 14:08:03 145.980
NANOSAT C BR1 23 Aug 14:01:51 14:03:56 13° 273° (W) 14:06:01 145.865
BEESAT 3 23 Aug 14:03:30 14:07:14 37° 237° (WSW) 14:10:53 437.485
POLYITAN 1 23 Aug 14:10:54 14:11:38 10° 276° (W) 14:12:23 437.675
SPROUT 23 Aug 14:15:47 14:20:04 85° 108° (ESE) 14:24:19 437.525
DX 1 23 Aug 14:22:46 14:26:32 27° 94° (E) 14:30:15 434.975-435.025
BEESAT 2 23 Aug 14:23:49 14:27:51 60° 231° (SW) 14:31:50 435.950
LO-87 23 Aug 14:26:56 14:28:46 14° 302° (WNW) 14:30:37 145.935 - 145.965
VELOX 1 23 Aug 14:30:18 14:34:46 90° 154° (SSE) 14:39:11 145.980
RS-15 23 Aug 14:30:22 14:42:38 62° 332° (NNW) 14:54:46 29.354- 29.394
ESTCUBE 1 23 Aug 14:37:08 14:40:52 25° 300° (WNW) 14:44:33 437.505/2401.250
BUGSAT 1 23 Aug 14:37:59 14:40:49 18° 269° (W) 14:43:39 437.445
50 SAT 23 Aug 14:44:10 14:47:31 56° 101° (E) 14:50:50 437.505
Tancredo 1 23 Aug 14:58:37 15:00:36 17° 212° (SSW) 15:02:35 437.200
ITAMSAT 1 23 Aug 15:02:32 15:07:16 37° 62° (ENE) 15:12:01 435.822/435.867
Gurwin Techsat 1B 23 Aug 15:13:28 15:18:20 36° 264° (W) 15:23:15 435.225
Oscar 19 23 Aug 15:16:50 15:20:58 24° 269° (W) 15:25:09 437.125/150
ISS 23 Aug 15:21:56 15:24:53 31° 204° (SSW) 15:27:50 437.550
nSIGHT-1 23 Aug 15:26:22 15:29:15 29° 206° (SSW) 15:32:05 .
UKube-1 23 Aug 15:30:38 15:34:59 78° 104° (ESE) 15:39:18 .
YUBILEINY 23 Aug 15:32:09 15:39:42 34° 81° (E) 15:47:15 435.215
BEESAT 23 Aug 15:32:28 15:35:06 15° 86° (E) 15:37:42 436.000
AO-7 23 Aug 15:39:48 15:48:12 88° 67° (ENE) 15:56:37 .
AO-85 23 Aug 15:42:04 15:43:18 11° 249° (WSW) 15:44:33 145.980
SPROUT 23 Aug 15:52:47 15:55:24 16° 305° (NW) 15:58:02 437.525
DX 1 23 Aug 15:58:44 16:02:53 43° 294° (WNW) 16:07:00 434.975-435.025
VELOX 1 23 Aug 16:07:51 16:10:37 16° 306° (NW) 16:13:22 145.980
ITUPSAT 1 23 Aug 16:07:53 16:11:59 27° 94° (E) 16:16:04 437.325
HO-68 23 Aug 16:09:51 16:11:28 11° 24° (NNE) 16:13:06 435.675
50 SAT 23 Aug 16:17:45 16:19:49 15° 301° (WNW) 16:21:53 437.505
MOZHAYETS 4 23 Aug 16:25:56 16:30:12 35° 96° (E) 16:34:27
DOVE 4 23 Aug 16:39:28 16:43:45 27° 60° (ENE) 16:47:55 437.250
ITAMSAT 1 23 Aug 16:41:45 16:46:42 43° 262° (W) 16:51:40 435.822/435.867
RS-15 23 Aug 16:45:45 16:57:42 50° 4° (N) 17:09:16 29.354- 29.394
CUBESAT XI-V 23 Aug 16:54:29 16:57:46 18° 88° (E) 17:01:01 437.345
XW-2B 23 Aug 16:57:06 16:58:03 11° 53° (NE) 16:59:02 145.730 - 145.750
UKube-1 23 Aug 17:07:35 17:10:31 18° 305° (NW) 17:13:26 .
BEESAT 23 Aug 17:08:48 17:13:36 86° 108° (ESE) 17:18:23 436.000
XW-2C 23 Aug 17:14:49 17:17:06 16° 58° (ENE) 17:19:24 145.795 - 145.815
O/OREOS (USA 219) 23 Aug 17:17:33 17:20:40 18° 36° (NE) 17:23:46 437.305
XW-2F 23 Aug 17:24:01 17:26:34 18° 59° (ENE) 17:29:09 145.980 - 146.000
YUBILEINY 23 Aug 17:27:06 17:35:53 72° 285° (WNW) 17:44:40 435.215
CUTE-I 23 Aug 17:33:40 17:38:16 30° 58° (ENE) 17:42:53 437.470
AO-7 23 Aug 17:35:10 17:42:02 27° 270° (W) 17:48:56 .
KAITUO 1B 23 Aug 17:43:23 17:46:16 22° 62° (ENE) 17:49:11 145.475/437.950
ITUPSAT 1 23 Aug 17:45:26 17:50:04 50° 293° (WNW) 17:54:41 437.325
HO-68 23 Aug 17:51:07 17:56:58 28° 49° (NE) 18:02:51 435.675
KKS-1 23 Aug 17:51:44 17:55:26 25° 93° (E) 17:59:07 437.445
MOZHAYETS 4 23 Aug 18:03:08 18:07:23 37° 295° (WNW) 18:11:38
NUDT-PHONESAT 23 Aug 18:10:40 18:14:04 36° 67° (ENE) 18:17:30 437.300
DOVE 4 23 Aug 18:15:56 18:21:08 62° 259° (WSW) 18:26:09 437.250
LilacSat-2 23 Aug 18:16:27 18:20:12 58° 71° (ENE) 18:23:59 437.200
XW-2D 23 Aug 18:16:41 18:20:23 56° 71° (ENE) 18:24:08 145.860 - 145.880
STARS 23 Aug 18:21:31 18:24:58 22° 92° (E) 18:28:23 437.465
XW-2B 23 Aug 18:27:46 18:31:31 71° 74° (ENE) 18:35:20 145.730 - 145.750
CUBESAT XI-V 23 Aug 18:30:56 18:35:41 75° 288° (WNW) 18:40:23 437.345
AAUSAT CUBESAT 2 23 Aug 18:41:09 18:42:00 11° 51° (NE) 18:42:51 437.432
XW-2C 23 Aug 18:47:04 18:50:49 72° 257° (WSW) 18:54:38 145.795 - 145.815
BEESAT 23 Aug 18:47:31 18:50:49 19° 306° (NW) 18:54:06 436.000
CUTE 1.7 + AOD 2 23 Aug 18:55:35 18:59:25 34° 65° (ENE) 19:03:18 437.475
O/OREOS (USA 219) 23 Aug 18:56:20 19:00:53 72° 57° (ENE) 19:05:27 437.305
XW-2F 23 Aug 18:56:36 19:00:19 60° 259° (W) 19:04:06 145.980 - 146.000
RS-15 23 Aug 19:00:02 19:12:23 72° 36° (NE) 19:24:05 29.354- 29.394
CUTE-I 23 Aug 19:12:48 19:18:04 57° 259° (W) 19:23:22 437.470
KAITUO 1B 23 Aug 19:16:27 19:20:02 45° 261° (W) 19:23:41 145.475/437.950
Oscar 11 23 Aug 19:25:01 19:26:53 13° 52° (NE) 19:28:44 .
ITUPSAT 1 23 Aug 19:25:27 19:26:52 11° 314° (NW) 19:28:18 437.325
UWE-3 23 Aug 19:26:15 19:29:36 24° 61° (ENE) 19:32:58 435.000/436.395/437.385
YUBILEINY 23 Aug 19:27:50 19:34:31 23° 311° (NW) 19:41:12 435.215
KKS-1 23 Aug 19:27:57 19:32:14 48° 293° (WNW) 19:36:30 437.445
HO-68 23 Aug 19:36:49 19:44:00 89° 251° (WSW) 19:51:13 435.675
SEEDS 23 Aug 19:36:50 19:40:56 53° 70° (ENE) 19:45:06 437.485
CUBEBUG 2 23 Aug 19:39:33 19:43:35 48° 69° (ENE) 19:47:35 437.445
NUDT-PHONESAT 23 Aug 19:45:00 19:48:04 24° 267° (W) 19:51:08 437.300
LilacSat-2 23 Aug 19:52:21 19:54:51 17° 271° (W) 19:57:21 437.200
XW-2D 23 Aug 19:52:25 19:54:55 17° 270° (W) 19:57:27 145.860 - 145.880
XW-2A 23 Aug 19:55:33 19:58:50 65° 74° (ENE) 20:02:11 145.665 - 145.685
STARS 23 Aug 19:57:20 20:01:38 54° 291° (WNW) 20:05:52 437.465
DOVE 4 23 Aug 19:58:11 19:59:45 11° 278° (W) 20:01:17 437.250
ZACube-1 23 Aug 19:58:25 20:01:58 28° 63° (ENE) 20:05:32 437.345
XW-2B 23 Aug 20:04:13 20:06:12 14° 272° (W) 20:08:12 145.730 - 145.750
CUBESAT XI-V 23 Aug 20:09:38 20:12:18 15° 308° (NW) 20:14:58 437.345
AAUSAT CUBESAT 2 23 Aug 20:12:30 20:16:36 58° 71° (ENE) 20:20:45 437.432
AO-73 23 Aug 20:17:18 20:21:06 37° 66° (ENE) 20:24:56 145.935
STRAND 1 23 Aug 20:20:57 20:25:25 29° 94° (E) 20:29:51 437.568
CUTE 1.7 + AOD 2 23 Aug 20:31:22 20:35:15 34° 265° (W) 20:39:11 437.475
O/OREOS (USA 219) 23 Aug 20:36:37 20:39:49 19° 258° (WSW) 20:43:01 437.305
DELFI C3 23 Aug 20:49:46 20:52:35 19° 59° (ENE) 20:55:24 145.870
Oscar 11 23 Aug 20:57:57 21:02:14 69° 72° (ENE) 21:06:34 .
CUTE-I 23 Aug 20:58:26 20:59:18 10° 279° (W) 21:00:10 437.470
UWE-3 23 Aug 21:01:51 21:05:52 47° 261° (W) 21:09:54 435.000/436.395/437.385
RS-15 23 Aug 21:13:06 21:24:36 53° 244° (WSW) 21:35:34 29.354- 29.394
SEEDS 23 Aug 21:13:38 21:16:56 22° 269° (W) 21:20:15 437.485
CUBEBUG 2 23 Aug 21:17:06 21:20:27 23° 268° (W) 21:23:48 437.445
HO-68 23 Aug 21:27:14 21:32:43 23° 272° (W) 21:38:13 435.675
FO-29 23 Aug 21:27:31 21:30:09 13° 81° (E) 21:32:43 435.910
Max Valier Satellite 23 Aug 21:28:48 21:31:59 29° 65° (ENE) 21:35:12 145.860
XW-2A 23 Aug 21:30:39 21:32:00 12° 272° (W) 21:33:22 145.665 - 145.685
ZACube-1 23 Aug 21:34:16 21:38:09 39° 263° (W) 21:42:04 437.345
STARS 23 Aug 21:36:03 21:37:03 11° 312° (NW) 21:38:03 437.465
AAUSAT CUBESAT 2 23 Aug 21:49:22 21:52:25 19° 270° (W) 21:55:30 437.432
AO-73 23 Aug 21:53:49 21:57:25 29° 266° (W) 22:01:05 145.935
STRAND 1 23 Aug 21:59:54 22:04:51 52° 294° (WNW) 22:09:47 437.568
LO-87 23 Aug 22:03:45 22:04:40 11° 55° (NE) 22:05:34 145.935 - 145.965
EO-88 23 Aug 22:14:58 22:18:35 69° 73° (ENE) 22:22:15 145.990 - 145.960
DELFI C3 23 Aug 22:22:59 22:26:58 64° 259° (WSW) 22:30:58 145.870
ESTCUBE 1 23 Aug 22:30:17 22:33:28 19° 56° (NE) 22:36:39 437.505/2401.250
Oscar 11 23 Aug 22:35:57 22:38:51 17° 272° (W) 22:41:47 .
UNISAT 6 23 Aug 22:38:20 22:41:40 21° 91° (E) 22:45:02 437.425
SO-50 23 Aug 22:51:22 22:54:35 19° 115° (ESE) 22:57:49 436.795
Max Valier Satellite 23 Aug 23:02:33 23:05:48 30° 265° (W) 23:09:05 145.860
PCSat 23 Aug 23:10:04 23:15:16 48° 119° (ESE) 23:20:28 145.827
FO-29 23 Aug 23:10:49 23:16:32 75° 104° (ESE) 23:21:46 435.910
TIGRISAT 23 Aug 23:12:00 23:16:03 38° 97° (E) 23:20:09 435.000
PRISM 23 Aug 23:17:42 23:21:25 31° 96° (E) 23:25:05 437.425
RS-15 23 Aug 23:28:19 23:33:50 15° 270° (W) 23:39:16 29.354- 29.394
LO-87 23 Aug 23:33:53 23:37:28 79° 74° (ENE) 23:41:03 145.935 - 145.965
SPROUT 23 Aug 23:40:18 23:43:35 22° 59° (ENE) 23:46:52 437.525
STRAND 1 23 Aug 23:40:58 23:42:59 12° 315° (NW) 23:45:00 437.568
AIST 2D 23 Aug 23:41:53 23:43:10 12° 87° (E) 23:44:26 435.315
EO-88 23 Aug 23:50:53 23:52:43 13° 272° (W) 23:54:33 145.990 - 145.960
DX 1 23 Aug 23:51:55 23:52:53 11° 48° (NE) 23:53:51 434.975-435.025
VELOX 1 23 Aug 23:57:51 00:01:37 28° 61° (ENE) 00:05:24 145.980
ESTCUBE 1 24 Aug 00:05:14 00:09:46 78° 257° (WSW) 00:14:20 437.505/2401.250
POLYITAN 1 24 Aug 00:10:55 00:12:34 12° 86° (E) 00:14:12 437.675
UNISAT 6 24 Aug 00:14:29 00:18:43 55° 290° (WNW) 00:22:59 437.425
EO-79 24 Aug 00:24:56 00:27:35 16° 88° (E) 00:30:15 145.935-145.965
QB50P2 24 Aug 00:25:20 00:28:13 18° 90° (E) 00:31:06 145.880/145.840
SO-50 24 Aug 00:30:00 00:34:31 84° 316° (NW) 00:39:04 436.795
TIGRISAT 24 Aug 00:48:54 00:52:41 31° 297° (WNW) 00:56:31 435.000
DUCHIFAT 1 24 Aug 00:50:17 00:53:35 22° 92° (E) 00:56:53 145.980
PRISM 24 Aug 00:52:57 00:56:44 35° 295° (WNW) 01:00:28 437.425
PCSat 24 Aug 00:53:31 00:58:45 46° 321° (NW) 01:04:00 145.827
UKube-1 24 Aug 00:56:06 00:59:32 23° 59° (ENE) 01:02:58 .
FO-29 24 Aug 00:56:36 01:01:04 24° 308° (NW) 01:05:15 435.910
LO-87 24 Aug 01:10:15 01:11:24 11° 273° (W) 01:12:34 145.935 - 145.965
AIST 2D 24 Aug 01:13:16 01:16:51 77° 286° (WNW) 01:20:25 435.315
SPROUT 24 Aug 01:14:59 01:19:10 57° 259° (W) 01:23:23 437.525
50 SAT 24 Aug 01:20:37 01:23:59 57° 71° (ENE) 01:27:21 437.505
DX 1 24 Aug 01:23:53 01:28:09 53° 68° (ENE) 01:32:26 434.975-435.025
M-CUBED/EXP-1 PRIME 24 Aug 01:26:18 01:30:40 56° 107° (ESE) 01:34:42 437.505
YUBILEINY 24 Aug 01:32:40 01:39:46 26° 52° (NE) 01:46:47 435.215
VELOX 1 24 Aug 01:33:34 01:37:53 47° 260° (W) 01:42:14 145.980
NANOSAT C BR1 24 Aug 01:36:45 01:40:57 65° 103° (ESE) 01:45:07 145.865
Oscar 19 24 Aug 01:42:28 01:45:13 14° 85° (E) 01:47:58 437.125/150
POLYITAN 1 24 Aug 01:44:47 01:49:02 85° 105° (ESE) 01:53:15 437.675
ESTCUBE 1 24 Aug 01:45:32 01:47:21 12° 276° (W) 01:49:11 437.505/2401.250
Gurwin Techsat 1B 24 Aug 01:45:49 01:46:27 10° 81° (E) 01:47:05 435.225
ITUPSAT 1 24 Aug 01:45:51 01:48:13 14° 49° (NE) 01:50:33 437.325
UNISAT 6 24 Aug 01:53:43 01:54:34 10° 310° (NW) 01:55:24 437.425
MOZHAYETS 4 24 Aug 01:59:32 02:01:49 14° 51° (NE) 02:04:05
EO-79 24 Aug 01:59:39 02:03:50 71° 288° (WNW) 02:08:02 145.935-145.965
QB50P2 24 Aug 02:00:15 02:04:26 65° 289° (WNW) 02:08:37 145.880/145.840
BUGSAT 1 24 Aug 02:11:32 02:15:22 40° 98° (E) 02:19:10 437.445
SO-50 24 Aug 02:11:39 02:15:34 28° 338° (NNW) 02:19:30 436.795
NO-84 24 Aug 02:23:58 02:26:40 39° 151° (SSE) 02:29:23 435.350 FM
DUCHIFAT 1 24 Aug 02:25:28 02:29:32 50° 291° (WNW) 02:33:35 145.980
UKube-1 24 Aug 02:31:00 02:35:16 56° 259° (WSW) 02:39:33 .
PCSat 24 Aug 02:39:15 02:43:26 22° 346° (NNW) 02:47:39 145.827
BEESAT 24 Aug 02:44:14 02:48:31 34° 62° (ENE) 02:52:48 436.000
AIST 2D 24 Aug 02:48:44 02:49:25 10° 305° (NW) 02:50:05 435.315
50 SAT 24 Aug 02:55:08 02:56:59 14° 270° (W) 02:58:51 437.505
M-CUBED/EXP-1 PRIME 24 Aug 03:01:07 03:04:46 25° 308° (NW) 03:08:12 437.505
DX 1 24 Aug 03:01:09 03:04:38 23° 268° (W) 03:08:09 434.975-435.025
NANOSAT C BR1 24 Aug 03:13:15 03:16:16 20° 302° (WNW) 03:19:17 145.865
Oscar 19 24 Aug 03:20:11 03:25:27 77° 105° (ESE) 03:30:39 437.125/150
ITUPSAT 1 24 Aug 03:20:29 03:25:11 64° 70° (ENE) 03:29:55 437.325
POLYITAN 1 24 Aug 03:21:41 03:24:17 16° 304° (NW) 03:26:53 437.675
Gurwin Techsat 1B 24 Aug 03:22:19 03:27:35 57° 101° (E) 03:32:49 435.225
KKS-1 24 Aug 03:23:18 03:24:07 10° 48° (NE) 03:24:56 437.445
YUBILEINY 24 Aug 03:29:18 03:38:05 83° 78° (ENE) 03:46:48 435.215
MOZHAYETS 4 24 Aug 03:33:39 03:38:11 70° 71° (ENE) 03:42:46
AO-7 24 Aug 03:35:13 03:40:55 20° 85° (E) 03:46:34 .
EO-79 24 Aug 03:37:05 03:38:53 13° 308° (NW) 03:40:42 145.935-145.965
QB50P2 24 Aug 03:37:56 03:39:27 12° 309° (NW) 03:40:58 145.880/145.840
BUGSAT 1 24 Aug 03:47:12 03:50:35 27° 298° (WNW) 03:53:59 437.445
SO-50 24 Aug 03:53:55 03:57:20 20° 2° (N) 04:00:46 436.795
NO-84 24 Aug 04:01:07 04:03:58 69° 350° (N) 04:06:50 435.350 FM
CUBESAT XI-V 24 Aug 04:03:23 04:07:39 36° 64° (ENE) 04:11:57 437.345
BEESAT 24 Aug 04:21:46 04:26:14 41° 262° (W) 04:30:45 436.000
PCSat 24 Aug 04:24:35 04:28:42 21° 12° (NNE) 04:32:50 145.827
ITAMSAT 1 24 Aug 04:47:39 04:52:33 41° 98° (E) 04:57:26 435.822/435.867
KKS-1 24 Aug 04:55:24 04:59:44 51° 68° (ENE) 05:04:04 437.445
ITUPSAT 1 24 Aug 04:59:49 05:03:27 21° 269° (W) 05:07:06 437.325
Oscar 19 24 Aug 05:00:14 05:04:16 23° 305° (NW) 05:08:17 437.125/150
Gurwin Techsat 1B 24 Aug 05:02:42 05:07:17 30° 301° (WNW) 05:11:52 435.225
MOZHAYETS 4 24 Aug 05:12:38 05:15:51 19° 271° (W) 05:19:05
STARS 24 Aug 05:23:40 05:27:51 43° 66° (ENE) 05:32:01 437.465
